When you browse on this site, cookies collect data to enhance your experience and personalize the content and advertising you see.
Visit our Privacy Policy to learn more. By continuing to use the site, you agree to this use of cookies and data.
  • în România
  • Lista ţărilor
  • Pe 7 zile
  • Temperatura apei
  • Meteo pe hartă
  • Widget-uri
  • user-avatar
    Intrare

    Meteo pe oră la Moquegua

    Astăzi, 28 Mai, Joi

    Timp Temperatura Precipitaţii Vânt Presiune Umiditate
    00:00 +16°C° 0 mm 0 m/s 643 mmHg 65%
    01:00 +16°C° 0 mm 0 m/s 642 mmHg 69%
    02:00 +15°C° 0 mm 0 m/s 642 mmHg 69%
    03:00 +15°C° 0 mm 0 m/s 642 mmHg 70%
    04:00 +15°C° 0 mm 0 m/s 642 mmHg 70%
    05:00 +15°C° 0 mm 0 m/s 642 mmHg 66%
    06:00 +16°C° 0 mm 0 m/s 643 mmHg 62%
    07:00 +17°C° 0 mm 0 m/s 644 mmHg 58%
    08:00 +21°C° 0 mm 1 m/s 645 mmHg 51%
    09:00 +23°C° 0 mm 1 m/s 645 mmHg 44%
    10:00 +25°C° 0 mm 2 m/s 646 mmHg 37%
    11:00 +25°C° 0 mm 2 m/s 645 mmHg 37%
    12:00 +26°C° 0 mm 3 m/s 645 mmHg 36%
    13:00 +26°C° 0 mm 4 m/s 644 mmHg 36%
    14:00 +25°C° 0 mm 4 m/s 644 mmHg 42%
    15:00 +23°C° 0 mm 4 m/s 644 mmHg 48%
    16:00 +22°C° 0 mm 4 m/s 644 mmHg 54%
    17:00 +20°C° 0 mm 2 m/s 644 mmHg 62%
    18:00 +20°C° 0 mm 1 m/s 644 mmHg 70%
    19:00 +16°C° 0 mm 0 m/s 644 mmHg 78%
    20:00 +16°C° 0 mm 0 m/s 644 mmHg 78%
    21:00 +16°C° 0 mm 0 m/s 644 mmHg 78%
    22:00 +16°C° 0 mm 0 m/s 644 mmHg 78%
    23:00 +15°C° 0 mm 0 m/s 644 mmHg 77%

    Mâine, 29 Mai, Vineri

    Timp Temperatura Precipitaţii Vânt Presiune Umiditate
    00:00 +15°C° 0 mm 0 m/s 643 mmHg 77%
    01:00 +15°C° 0 mm 0 m/s 643 mmHg 77%
    02:00 +15°C° 0 mm 0 m/s 643 mmHg 77%
    03:00 +14°C° 0 mm 0 m/s 643 mmHg 77%
    04:00 +14°C° 0 mm 0 m/s 642 mmHg 76%
    05:00 +15°C° 0 mm 0 m/s 643 mmHg 71%
    06:00 +16°C° 0 mm 0 m/s 643 mmHg 66%
    07:00 +17°C° 0 mm 0 m/s 644 mmHg 61%
    08:00 +20°C° 0 mm 1 m/s 644 mmHg 55%
    09:00 +22°C° 0 mm 1 m/s 645 mmHg 48%
    10:00 +24°C° 0 mm 2 m/s 645 mmHg 42%
    11:00 +24°C° 0 mm 3 m/s 645 mmHg 42%
    12:00 +24°C° 0 mm 3 m/s 644 mmHg 42%
    13:00 +25°C° 0 mm 4 m/s 644 mmHg 42%
    14:00 +24°C° 0 mm 3 m/s 644 mmHg 47%
    15:00 +22°C° 0 mm 3 m/s 643 mmHg 51%
    16:00 +21°C° 0 mm 3 m/s 643 mmHg 56%
    17:00 +20°C° 0 mm 2 m/s 643 mmHg 63%
    18:00 +20°C° 0 mm 1 m/s 643 mmHg 70%
    19:00 +16°C° 0 mm 0 m/s 643 mmHg 77%
    20:00 +16°C° 0 mm 0 m/s 643 mmHg 76%
    21:00 +16°C° 0 mm 0 m/s 643 mmHg 76%
    22:00 +16°C° 0 mm 0 m/s 643 mmHg 75%
    23:00 +16°C° 0 mm 0 m/s 643 mmHg 76%

    Poimâine, 30 Mai, Sâmbătă

    Timp Temperatura Precipitaţii Vânt Presiune Umiditate
    00:00 +15°C° 0 mm 0 m/s 643 mmHg 77%
    01:00 +15°C° 0 mm 0 m/s 642 mmHg 78%
    02:00 +14°C° 0 mm 0 m/s 642 mmHg 78%
    03:00 +14°C° 0 mm 0 m/s 642 mmHg 78%
    04:00 +14°C° 0 mm 0 m/s 641 mmHg 79%
    05:00 +14°C° 0 mm 0 m/s 642 mmHg 74%
    06:00 +15°C° 0 mm 0 m/s 643 mmHg 69%
    07:00 +16°C° 0 mm 0 m/s 644 mmHg 65%
    08:00 +20°C° 0 mm 1 m/s 644 mmHg 58%
    09:00 +21°C° 0 mm 1 m/s 644 mmHg 51%
    10:00 +23°C° 0 mm 2 m/s 645 mmHg 44%
    11:00 +24°C° 0 mm 3 m/s 644 mmHg 42%
    12:00 +24°C° 0 mm 3 m/s 644 mmHg 41%
    13:00 +25°C° 0 mm 4 m/s 644 mmHg 39%
    14:00 +23°C° 0 mm 4 m/s 644 mmHg 43%
    15:00 +22°C° 0 mm 3 m/s 643 mmHg 47%
    16:00 +21°C° 0 mm 3 m/s 643 mmHg 51%
    17:00 +20°C° 0 mm 2 m/s 643 mmHg 58%
    18:00 +20°C° 0 mm 1 m/s 643 mmHg 66%
    19:00 +16°C° 0 mm 0 m/s 644 mmHg 74%
    20:00 +16°C° 0 mm 0 m/s 644 mmHg 74%
    21:00 +16°C° 0 mm 0 m/s 644 mmHg 75%
    22:00 +16°C° 0 mm 0 m/s 644 mmHg 75%
    23:00 +15°C° 0 mm 0 m/s 644 mmHg 75%

    31 Mai, Duminică

    Timp Temperatura Precipitaţii Vânt Presiune Umiditate
    00:00 +15°C° 0 mm 0 m/s 643 mmHg 76%
    01:00 +15°C° 0 mm 0 m/s 643 mmHg 76%
    02:00 +14°C° 0 mm 0 m/s 643 mmHg 76%
    03:00 +14°C° 0 mm 0 m/s 642 mmHg 76%
    04:00 +14°C° 0 mm 0 m/s 642 mmHg 77%
    05:00 +15°C° 0 mm 0 m/s 643 mmHg 73%
    06:00 +15°C° 0 mm 0 m/s 643 mmHg 69%
    07:00 +16°C° 0 mm 0 m/s 644 mmHg 65%
    08:00 +20°C° 0 mm 1 m/s 644 mmHg 58%
    09:00 +21°C° 0 mm 2 m/s 645 mmHg 51%
    10:00 +22°C° 0 mm 3 m/s 645 mmHg 45%
    11:00 +24°C° 0 mm 3 m/s 645 mmHg 45%
    12:00 +24°C° 0 mm 3 m/s 645 mmHg 45%
    13:00 +23°C° 0 mm 4 m/s 644 mmHg 45%
    14:00 +24°C° 0 mm 3 m/s 644 mmHg 49%
    15:00 +22°C° 0 mm 3 m/s 644 mmHg 53%
    16:00 +21°C° 0 mm 3 m/s 643 mmHg 56%
    17:00 +20°C° 0 mm 2 m/s 644 mmHg 63%
    18:00 +20°C° 0 mm 1 m/s 644 mmHg 69%
    19:00 +16°C° 0 mm 0 m/s 644 mmHg 75%
    20:00 +16°C° 0 mm 0 m/s 644 mmHg 75%
    21:00 +16°C° 0 mm 0 m/s 644 mmHg 75%
    22:00 +16°C° 0 mm 0 m/s 644 mmHg 75%
    23:00 +15°C° 0 mm 0 m/s 644 mmHg 75%

    1 Iunie, Luni

    Timp Temperatura Precipitaţii Vânt Presiune Umiditate
    00:00 +15°C° 0 mm 0 m/s 644 mmHg 75%
    01:00 +15°C° 0 mm 0 m/s 644 mmHg 75%
    02:00 +14°C° 0 mm 0 m/s 644 mmHg 76%
    03:00 +14°C° 0 mm 0 m/s 643 mmHg 76%
    04:00 +14°C° 0 mm 0 m/s 643 mmHg 77%
    05:00 +15°C° 0 mm 0 m/s 644 mmHg 73%
    06:00 +15°C° 0 mm 0 m/s 644 mmHg 69%
    07:00 +16°C° 0 mm 0 m/s 645 mmHg 64%
    08:00 +20°C° 0 mm 1 m/s 645 mmHg 57%
    09:00 +22°C° 0 mm 1 m/s 646 mmHg 51%
    10:00 +23°C° 0 mm 2 m/s 646 mmHg 44%
    11:00 +24°C° 0 mm 2 m/s 646 mmHg 41%
    12:00 +25°C° 0 mm 3 m/s 645 mmHg 38%
    13:00 +25°C° 0 mm 3 m/s 645 mmHg 36%
    14:00 +25°C° 0 mm 3 m/s 645 mmHg 38%
    15:00 +24°C° 0 mm 3 m/s 645 mmHg 41%
    16:00 +22°C° 0 mm 3 m/s 644 mmHg 44%
    17:00 +21°C° 0 mm 2 m/s 644 mmHg 50%
    18:00 +21°C° 0 mm 1 m/s 644 mmHg 57%
    19:00 +17°C° 0 mm 0 m/s 645 mmHg 64%
    20:00 +17°C° 0 mm 0 m/s 645 mmHg 65%
    21:00 +16°C° 0 mm 0 m/s 645 mmHg 66%
    22:00 +16°C° 0 mm 0 m/s 645 mmHg 67%
    23:00 +15°C° 0 mm 0 m/s 644 mmHg 67%

    2 Iunie, Marţi

    Timp Temperatura Precipitaţii Vânt Presiune Umiditate
    00:00 +15°C° 0 mm 0 m/s 644 mmHg 67%
    01:00 +15°C° 0 mm 0 m/s 644 mmHg 67%
    02:00 +14°C° 0 mm 0 m/s 643 mmHg 67%
    03:00 +14°C° 0 mm 0 m/s 643 mmHg 67%
    04:00 +14°C° 0 mm 0 m/s 643 mmHg 67%
    05:00 +14°C° 0 mm 0 m/s 643 mmHg 65%
    06:00 +15°C° 0 mm 0 m/s 644 mmHg 62%
    07:00 +16°C° 0 mm 0 m/s 644 mmHg 60%
    08:00 +19°C° 0 mm 1 m/s 645 mmHg 54%
    09:00 +20°C° 0 mm 2 m/s 645 mmHg 48%
    10:00 +23°C° 0 mm 2 m/s 645 mmHg 42%
    11:00 +22°C° 0 mm 3 m/s 645 mmHg 41%
    12:00 +24°C° 0 mm 3 m/s 644 mmHg 41%
    13:00 +24°C° 0 mm 3 m/s 644 mmHg 40%
    14:00 +22°C° 0 mm 3 m/s 643 mmHg 44%
    15:00 +22°C° 0 mm 3 m/s 643 mmHg 48%
    16:00 +21°C° 0 mm 2 m/s 642 mmHg 53%
    17:00 +20°C° 0 mm 2 m/s 642 mmHg 59%
    18:00 +19°C° 0 mm 1 m/s 643 mmHg 65%
    19:00 +16°C° 0 mm 0 m/s 643 mmHg 71%
    20:00 +16°C° 0 mm 0 m/s 643 mmHg 70%
    21:00 +16°C° 0 mm 0 m/s 644 mmHg 68%
    22:00 +16°C° 0 mm 0 m/s 644 mmHg 67%
    23:00 +15°C° 0 mm 0 m/s 643 mmHg 68%
    Arată mai mult